Bachir Chihani — 7TJA — position and weather

sailwx.info

Track history (hours):
 
Tides and Currents Weather Stations Pressure Air Temp Water Temp Dewpoint Dewpoint Depression Visibility Wind Speed Wind Dir Waves Ship Positions

Bachir Chihani

Last reported at 2014-Oct-27 20:08 UTC. Time now 2014-Oct-31 07:01 UTC.
Position N 36°41' E 000°59'.

Length 280 m; draft 11.3 m.

Type: Ship (hazmat cat C). MMSI: 605106010.

Date/timePositionNaut miles runAvg speedWind from/ knotsBaromVisibWave heightAir tempDewpointWater temp
2014-Oct-27 20:08N 36°41' E 000°59'1213.6
2014-Oct-27 19:15N 36°35' E 000°46'1213.2
2014-Oct-27 18:20N 36°29' E 000°33'1013.6
2014-Oct-27 17:33N 36°23' E 000°22'1414.1
2014-Oct-27 16:33N 36°15' E 000°08'32 0.7
2014-Oct-25 21:09N 35°49' W 000°16'0 0.0
2014-Oct-25 19:15N 35°49' W 000°16'0 0.0
2014-Oct-25 16:33N 35°49' W 000°16'0 0.0
2014-Oct-25 14:32N 35°49' W 000°16'0 0.0
2014-Oct-25 11:33N 35°49' W 000°16'1 1.3
2014-Oct-25 10:32N 35°50' W 000°16'2 1.8
2014-Oct-25 09:33N 35°52' W 000°14'2 2.1
2014-Oct-25 08:34N 35°53' W 000°13'2 1.8
2014-Oct-25 07:15N 35°55' W 000°10'0 0.4
2014-Oct-25 06:33N 35°54' W 000°10'1 0.6
2014-Oct-25 05:32N 35°54' W 000°11'3 2.7
2014-Oct-25 04:33N 35°52' W 000°12'1 1.2
2014-Oct-25 03:33N 35°53' W 000°12'3 3.4
2014-Oct-25 02:33N 35°54' W 000°08'1 0.5
2014-Oct-25 01:33N 35°54' W 000°07'1 0.5
2014-Oct-25 00:33N 35°53' W 000°07'1 0.5
2014-Oct-24 23:33N 35°53' W 000°06'0 0.5
2014-Oct-24 22:33N 35°53' W 000°05'1 0.5
2014-Oct-24 21:33N 35°54' W 000°05'1 0.8
2014-Oct-24 20:33N 35°54' W 000°04'1 1.1
2014-Oct-24 19:34N 35°55' W 000°05'2 2.4
2014-Oct-24 18:33N 35°57' W 000°07'2 1.6
2014-Oct-24 17:22N 35°56' W 000°09'2 2.8
2014-Oct-24 16:33N 35°54' W 000°07'2 2.1
2014-Oct-24 15:33N 35°52' W 000°06'1 0.7
2014-Oct-24 14:32N 35°53' W 000°05'1 0.4
2014-Oct-24 11:22N 35°54' W 000°04'2 0.3
2014-Oct-24 04:31N 35°54' W 000°06'0 0.2
2014-Oct-24 02:29N 35°54' W 000°06'0 0.0
2014-Oct-24 01:34N 35°54' W 000°06'0 0.2
2014-Oct-24 00:33N 35°54' W 000°06'2 1.8
2014-Oct-23 23:33N 35°54' W 000°09'2 2.4
2014-Oct-23 22:33N 35°53' W 000°11'2 2.4
2014-Oct-23 21:33N 35°55' W 000°14'2 0.9
2014-Oct-23 19:26N 35°54' W 000°12'4 0.1
2014-Oct-22 17:08N 35°57' W 000°09'7 0.4
2014-Oct-21 21:12N 35°51' W 000°15'0 0.1
2014-Oct-21 20:31N 35°51' W 000°15'0 0.1
2014-Oct-21 19:33N 35°51' W 000°15'0 0.1
2014-Oct-21 18:33N 35°51' W 000°15'0 0.0
2014-Oct-21 15:33N 35°51' W 000°15'0 0.0
2014-Oct-21 14:32N 35°51' W 000°15'0 0.1
2014-Oct-21 13:33N 35°51' W 000°15'1 0.5
2014-Oct-21 12:33N 35°52' W 000°15'0 0.2
2014-Oct-21 10:31N 35°52' W 000°15'9 1.1
2014-Oct-21 02:29N 35°55' W 000°05'0 0.5
2014-Oct-21 01:32N 35°55' W 000°05'2 2.1
2014-Oct-21 00:34N 35°53' W 000°05'0 0.3
2014-Oct-20 23:32N 35°52' W 000°05'1 0.6
2014-Oct-20 22:12N 35°53' W 000°04'0 0.2
2014-Oct-20 21:34N 35°53' W 000°04'82 4.3
2014-Oct-20 02:32N 36°44' E 001°15'1212.2
2014-Oct-20 01:31N 36°47' E 001°30'5012.2
2014-Oct-19 21:25N 36°56' E 002°32'1111.9
2014-Oct-19 20:29N 36°58' E 002°45'1111.6
2014-Oct-19 19:33N 36°60' E 002°59'1211.7
2014-Oct-19 18:33N 37°01' E 003°13'1212.2
2014-Oct-19 17:33N 37°03' E 003°28'1212.2
2014-Oct-19 16:33N 37°04' E 003°44'1811.9
2014-Oct-19 15:04N 37°05' E 004°06'611.9
2014-Oct-19 14:33N 37°06' E 004°13'2411.8
2014-Oct-19 12:30N 37°09' E 004°43'4812.1
2014-Oct-19 08:31N 37°14' E 005°44'8411.8
2014-Oct-19 01:24N 37°18' E 007°29'2111.4
2014-Oct-18 23:33N 37°18' E 007°56'1211.5
2014-Oct-18 22:28N 37°18' E 008°11'1211.6
2014-Oct-18 21:28N 37°18' E 008°26'1111.6
2014-Oct-18 20:30N 37°21' E 008°40'1611.6
2014-Oct-18 19:05N 37°25' E 008°59'611.2
2014-Oct-18 18:33N 37°27' E 009°07'1111.0
2014-Oct-18 17:33N 37°30' E 009°20'1111.1
2014-Oct-18 16:33N 37°33' E 009°33'1111.0
2014-Oct-18 15:33N 37°36' E 009°46'1111.1
2014-Oct-18 14:33N 37°39' E 010°00'1111.3
2014-Oct-18 13:33N 37°39' E 010°14'1111.1
2014-Oct-18 12:33N 37°36' E 010°28'1211.5
2014-Oct-18 11:32N 37°33' E 010°42'3511.7
2014-Oct-18 08:33N 37°22' E 011°24'1311.9
2014-Oct-18 07:29N 37°16' E 011°38'3612.2
2014-Oct-18 04:33N 36°58' E 012°17'1212.1
2014-Oct-18 03:33N 36°53' E 012°30'1212.1
2014-Oct-18 02:33N 36°48' E 012°44'1212.4
2014-Oct-18 01:33N 36°45' E 012°59'1312.5
2014-Oct-18 00:33N 36°42' E 013°14'1212.3
2014-Oct-17 23:33N 36°40' E 013°29'1212.2
2014-Oct-17 22:34N 36°37' E 013°44'1211.9
2014-Oct-17 21:33N 36°35' E 013°58'1211.8
2014-Oct-17 20:33N 36°32' E 014°13'  
Track history (hours):
 
Tides and Currents Weather Stations Pressure Air Temp Water Temp Dewpoint Dewpoint Depression Visibility Wind Speed Wind Dir Waves Ship Positions

Bachir Chihani

Last reported at 2014-Oct-27 20:08 UTC. Time now 2014-Oct-31 07:01 UTC.
Position N 36°41' E 000°59'.

Length 280 m; draft 11.3 m.

Type: Ship (hazmat cat C). MMSI: 605106010.

Date/timePositionNaut miles runAvg speedWind from/ knotsBaromVisibWave heightAir tempDewpointWater temp
2014-Oct-27 20:08N 36°41' E 000°59'1213.6
2014-Oct-27 19:15N 36°35' E 000°46'1213.2
2014-Oct-27 18:20N 36°29' E 000°33'1013.6
2014-Oct-27 17:33N 36°23' E 000°22'1414.1
2014-Oct-27 16:33N 36°15' E 000°08'32 0.7
2014-Oct-25 21:09N 35°49' W 000°16'0 0.0
2014-Oct-25 19:15N 35°49' W 000°16'0 0.0
2014-Oct-25 16:33N 35°49' W 000°16'0 0.0
2014-Oct-25 14:32N 35°49' W 000°16'0 0.0
2014-Oct-25 11:33N 35°49' W 000°16'1 1.3
2014-Oct-25 10:32N 35°50' W 000°16'2 1.8
2014-Oct-25 09:33N 35°52' W 000°14'2 2.1
2014-Oct-25 08:34N 35°53' W 000°13'2 1.8
2014-Oct-25 07:15N 35°55' W 000°10'0 0.4
2014-Oct-25 06:33N 35°54' W 000°10'1 0.6
2014-Oct-25 05:32N 35°54' W 000°11'3 2.7
2014-Oct-25 04:33N 35°52' W 000°12'1 1.2
2014-Oct-25 03:33N 35°53' W 000°12'3 3.4
2014-Oct-25 02:33N 35°54' W 000°08'1 0.5
2014-Oct-25 01:33N 35°54' W 000°07'1 0.5
2014-Oct-25 00:33N 35°53' W 000°07'1 0.5
2014-Oct-24 23:33N 35°53' W 000°06'0 0.5
2014-Oct-24 22:33N 35°53' W 000°05'1 0.5
2014-Oct-24 21:33N 35°54' W 000°05'1 0.8
2014-Oct-24 20:33N 35°54' W 000°04'1 1.1
2014-Oct-24 19:34N 35°55' W 000°05'2 2.4
2014-Oct-24 18:33N 35°57' W 000°07'2 1.6
2014-Oct-24 17:22N 35°56' W 000°09'2 2.8
2014-Oct-24 16:33N 35°54' W 000°07'2 2.1
2014-Oct-24 15:33N 35°52' W 000°06'1 0.7
2014-Oct-24 14:32N 35°53' W 000°05'1 0.4
2014-Oct-24 11:22N 35°54' W 000°04'2 0.3
2014-Oct-24 04:31N 35°54' W 000°06'0 0.2
2014-Oct-24 02:29N 35°54' W 000°06'0 0.0
2014-Oct-24 01:34N 35°54' W 000°06'0 0.2
2014-Oct-24 00:33N 35°54' W 000°06'2 1.8
2014-Oct-23 23:33N 35°54' W 000°09'2 2.4
2014-Oct-23 22:33N 35°53' W 000°11'2 2.4
2014-Oct-23 21:33N 35°55' W 000°14'2 0.9
2014-Oct-23 19:26N 35°54' W 000°12'4 0.1
2014-Oct-22 17:08N 35°57' W 000°09'7 0.4
2014-Oct-21 21:12N 35°51' W 000°15'0 0.1
2014-Oct-21 20:31N 35°51' W 000°15'0 0.1
2014-Oct-21 19:33N 35°51' W 000°15'0 0.1
2014-Oct-21 18:33N 35°51' W 000°15'0 0.0
2014-Oct-21 15:33N 35°51' W 000°15'0 0.0
2014-Oct-21 14:32N 35°51' W 000°15'0 0.1
2014-Oct-21 13:33N 35°51' W 000°15'1 0.5
2014-Oct-21 12:33N 35°52' W 000°15'0 0.2
2014-Oct-21 10:31N 35°52' W 000°15'9 1.1
2014-Oct-21 02:29N 35°55' W 000°05'0 0.5
2014-Oct-21 01:32N 35°55' W 000°05'2 2.1
2014-Oct-21 00:34N 35°53' W 000°05'0 0.3
2014-Oct-20 23:32N 35°52' W 000°05'1 0.6
2014-Oct-20 22:12N 35°53' W 000°04'0 0.2
2014-Oct-20 21:34N 35°53' W 000°04'82 4.3
2014-Oct-20 02:32N 36°44' E 001°15'1212.2
2014-Oct-20 01:31N 36°47' E 001°30'5012.2
2014-Oct-19 21:25N 36°56' E 002°32'1111.9
2014-Oct-19 20:29N 36°58' E 002°45'1111.6
2014-Oct-19 19:33N 36°60' E 002°59'1211.7
2014-Oct-19 18:33N 37°01' E 003°13'1212.2
2014-Oct-19 17:33N 37°03' E 003°28'1212.2
2014-Oct-19 16:33N 37°04' E 003°44'1811.9
2014-Oct-19 15:04N 37°05' E 004°06'611.9
2014-Oct-19 14:33N 37°06' E 004°13'2411.8
2014-Oct-19 12:30N 37°09' E 004°43'4812.1
2014-Oct-19 08:31N 37°14' E 005°44'8411.8
2014-Oct-19 01:24N 37°18' E 007°29'2111.4
2014-Oct-18 23:33N 37°18' E 007°56'1211.5
2014-Oct-18 22:28N 37°18' E 008°11'1211.6
2014-Oct-18 21:28N 37°18' E 008°26'1111.6
2014-Oct-18 20:30N 37°21' E 008°40'1611.6
2014-Oct-18 19:05N 37°25' E 008°59'611.2
2014-Oct-18 18:33N 37°27' E 009°07'1111.0
2014-Oct-18 17:33N 37°30' E 009°20'1111.1
2014-Oct-18 16:33N 37°33' E 009°33'1111.0
2014-Oct-18 15:33N 37°36' E 009°46'1111.1
2014-Oct-18 14:33N 37°39' E 010°00'1111.3
2014-Oct-18 13:33N 37°39' E 010°14'1111.1
2014-Oct-18 12:33N 37°36' E 010°28'1211.5
2014-Oct-18 11:32N 37°33' E 010°42'3511.7
2014-Oct-18 08:33N 37°22' E 011°24'1311.9
2014-Oct-18 07:29N 37°16' E 011°38'3612.2
2014-Oct-18 04:33N 36°58' E 012°17'1212.1
2014-Oct-18 03:33N 36°53' E 012°30'1212.1
2014-Oct-18 02:33N 36°48' E 012°44'1212.4
2014-Oct-18 01:33N 36°45' E 012°59'1312.5
2014-Oct-18 00:33N 36°42' E 013°14'1212.3
2014-Oct-17 23:33N 36°40' E 013°29'1212.2
2014-Oct-17 22:34N 36°37' E 013°44'1211.9
2014-Oct-17 21:33N 36°35' E 013°58'1211.8
2014-Oct-17 20:33N 36°32' E 014°13'  

Dump ship's entire track history